Weather History for V.C. Bird, Antigua

Change the Weather History Date:

Monday, November 5, 2012

  Actual Average Record
Temperature  
Mean Temperature 80 °F -  
Max Temperature 86 °F 83 °F 87 °F (2011)
Min Temperature 75 °F 74 °F 71 °F (2007)
Cooling Degree Days 16    
Growing Degree Days 30 (Base 50)    
Moisture  
Dew Point 73 °F    
Average Humidity 76    
Maximum Humidity 94    
Minimum Humidity 60    
Precipitation  
Precipitation 0.04 in - - ()
Sea Level Pressure  
Sea Level Pressure 29.91 in    
Wind  
Wind Speed 10 mph ()    
Max Wind Speed 23 mph    
Max Gust Speed -    
Visibility 8.7 miles    
Events Rain    
Averages and records for this station are not official NWS values.
T = Trace of Precipitation, MM = Missing Value Source: Averaged Metar Reports

Daily Weather History Graph

Daily Weather History Graph

Search for Another Location

Airport:

Trip Planner

Search our weather history database for the weather conditions in past years. The results will help you decide how hot, cold, wet, or windy it might be!

Date:

Astronomy

Nov. 05, 2012 Rise Set
Actual Time 6:07 AM AST 5:34 PM AST
Civil Twilight 5:44 AM AST 5:56 PM AST
Nautical Twilight 5:18 AM AST 6:22 PM AST
Astronomical Twilight 4:53 AM AST 6:48 PM AST
Moon 11:05 PM AST (11/5) 11:21 AM AST (11/5)
Length of Visible Light 12h 11m
Length of Day
11h 26m
Waning Gibbous, 63% of the Moon is Illuminated
Nov 5
Waning Gibbous
Nov 6
Last Quarter
Nov 13
New
Nov 20
First Quarter
Nov 28
Full

Hourly Weather History & Observations

Time (AST) Temp. Heat Index Dew Point Humidity Pressure Visibility Wind Dir Wind Speed Gust Speed Precip Events Conditions
12:00 AM 78.8 °F - 73.4 °F 83% 29.92 in 6.2 mi East 12.7 mph - N/A   Partly Cloudy
1:00 AM 78.8 °F - 73.4 °F 83% 29.92 in 6.2 mi East 15.0 mph - N/A   Scattered Clouds
2:00 AM 79 °F - 72 °F 74% 29.90 in 17 mi ESE 9.2 mph - -   Widespread Dust
2:00 AM 78.8 °F - 71.6 °F 78% 29.89 in 6.2 mi ESE 9.2 mph - N/A   Scattered Clouds
3:00 AM 80.6 °F 85.4 °F 73.4 °F 79% 29.86 in 6.2 mi SE 9.2 mph - N/A   Scattered Clouds
4:00 AM 80.6 °F 85.4 °F 73.4 °F 79% 29.86 in 6.2 mi ESE 9.2 mph - N/A Rain Light Rain Showers
5:00 AM 80 °F - 72 °F 71% 29.88 in 17 mi ESE 10.4 mph - -   Widespread Dust
5:00 AM 80.6 °F 84.6 °F 71.6 °F 74% 29.86 in 6.2 mi ESE 10.4 mph - N/A   Mostly Cloudy
6:00 AM 78.8 °F - 73.4 °F 83% 29.89 in 6.2 mi SE 9.2 mph - N/A   Partly Cloudy
7:00 AM 80.6 °F 85.4 °F 73.4 °F 79% 29.89 in 6.2 mi ESE 10.4 mph - N/A   Scattered Clouds
8:00 AM 82 °F - 73 °F 67% 29.93 in 17 mi ESE 12.7 mph - -   Widespread Dust
8:00 AM 82.4 °F 88.2 °F 73.4 °F 74% 29.92 in 6.2 mi ESE 12.7 mph - N/A   Mostly Cloudy
9:00 AM 84.2 °F 90.9 °F 73.4 °F 70% 29.95 in 6.2 mi ESE 11.5 mph - N/A   Scattered Clouds
10:00 AM 84.2 °F 89.6 °F 71.6 °F 66% 29.95 in 6.2 mi SE 12.7 mph - N/A   Scattered Clouds
11:00 AM 85 °F - 73 °F 60% 29.95 in 17 mi SE 12.7 mph - -   Widespread Dust
11:00 AM 86.0 °F 93.4 °F 73.4 °F 66% 29.95 in 6.2 mi SE 12.7 mph - N/A   Scattered Clouds
12:00 PM 84.2 °F 90.9 °F 73.4 °F 70% 29.92 in 6.2 mi ESE 13.8 mph - N/A   Scattered Clouds
1:00 PM 84.2 °F 89.6 °F 71.6 °F 66% 29.92 in 6.2 mi ESE 13.8 mph - N/A   Partly Cloudy
2:00 PM 85 °F - 73 °F 60% 29.90 in 18 mi ESE 10.4 mph - -   Widespread Dust
2:00 PM 84.2 °F 90.9 °F 73.4 °F 70% 29.89 in 6.2 mi ESE 10.4 mph - N/A   Partly Cloudy
3:00 PM 84.2 °F 89.6 °F 71.6 °F 66% 29.89 in 6.2 mi ESE 12.7 mph - N/A   Partly Cloudy
4:00 PM 84.2 °F 89.6 °F 71.6 °F 66% 29.89 in 6.2 mi ESE 10.4 mph - N/A   Partly Cloudy
5:00 PM 82 °F - 72 °F 63% 29.90 in 19 mi East 10.4 mph - -   Widespread Dust
5:00 PM 82.4 °F 87.2 °F 71.6 °F 70% 29.89 in 6.2 mi East 10.4 mph - N/A   Partly Cloudy
6:00 PM 80.6 °F 84.6 °F 71.6 °F 74% 29.89 in 6.2 mi East 5.8 mph - N/A   Scattered Clouds
6:40 PM 78.8 °F - 75.2 °F 89% 29.92 in 6.2 mi ESE 23.0 mph - N/A Rain Light Rain Showers
7:00 PM 77.0 °F - 73.4 °F 89% 29.92 in 6.2 mi ESE 20.7 mph - N/A Rain Light Rain Showers
7:25 PM 75.2 °F - 73.4 °F 94% 29.92 in 6.2 mi NNE 8.1 mph - N/A Rain Light Rain Showers
8:00 PM 75 °F - 73 °F 92% 29.95 in 14 mi 1.2 mph - - Rain Light Rain Showers
8:00 PM 75.2 °F - 73.4 °F 94% 29.95 in 6.2 mi Variable 1.2 mph - N/A Rain Light Rain Showers
9:00 PM 75.2 °F - 73.4 °F 94% 29.95 in 6.2 mi Calm Calm - N/A   Mostly Cloudy
10:00 PM 77.0 °F - 75.2 °F 94% 29.95 in 6.2 mi SE 5.8 mph - N/A   Scattered Clouds
11:00 PM 78 °F - 73 °F 80% 29.94 in 17 mi ESE 11.5 mph - -   Widespread Dust
11:00 PM 78.8 °F - 73.4 °F 83% 29.92 in 6.2 mi ESE 11.5 mph - N/A   Partly Cloudy